Location: Roanoke
(37.2710°N, 79.9420°W)
Time: 20:53:35
(UTC-05:00)

S-56A Canister/Altair - Pass Details

Date: 21 November 2019
Orbit: 633 x 2500 km, 38.9° (Epoch: 08 December)

Event Time Altitude Azimuth Distance (km) Brightness Sun altitude
Rises 19:16:19 0° 275° (W) 4,859 12.9 -25.7°
Reaches altitude 10° 19:20:02 10° 277° (W) 3,566 11.9 -26.5°
Maximum altitude 19:28:35 80° 4° (N) 1,056 8.0 -28.2°
Enters shadow 19:29:08 73° 56° (ENE) 1,055 7.9 -28.3°
Drops below altitude 10° 19:34:13 10° 92° (E) 2,406 - -29.3°
Sets 19:36:18 0° 93° (E) 3,198 - -29.7°
